Columbia Owens, SC

10:06 PM EST on November 12, 2019 (GMT -0500)
Columbia Owens Downtown

Weather History for KCUB - September, 2019

Change the Weather History Date:

Saturday, September 28, 2019

  Actual Average Record
Temperature  
Mean Temperature 82 °F 72 °F  
Max Temperature 93 °F 82 °F 96 °F (2017)
Min Temperature 71 °F 62 °F 50 °F (2000)
Degree Days  
Heating Degree Days 0 0  
Month to date heating degree days 0 0  
Since 1 July heating degree days 0 0  
Cooling Degree Days 17 7  
Month to date cooling degree days 469 315  
Year to date cooling degree days 2592 2133  
Growing Degree Days 32 (Base 50)    
Moisture  
Dew Point 68 °F    
Average Humidity 68    
Maximum Humidity 93    
Minimum Humidity 36    
Precipitation  
Precipitation 0.00 in 0.13 in 0.93 in (1999)
Month to date precipitation 0.79 3.80  
Year to date precipitation 23.97 35.65  
Sea Level Pressure  
Sea Level Pressure 30.12 in    
Wind  
Wind Speed 3 mph (SSE)    
Max Wind Speed 12 mph    
Max Gust Speed 14 mph    
Visibility 10 miles    
Events      
T = Trace of Precipitation, MM = Missing Value Source: NWS Daily Summary

Daily Weather History Graph

Daily Weather History Graph

Search for Another Location

Airport or City:

Astronomy

Sep. 28, 2019 Rise Set
Actual Time 7:16 AM EDT 7:12 PM EDT
Civil Twilight 6:51 AM EDT 7:37 PM EDT
Nautical Twilight 6:22 AM EDT 8:06 PM EDT
Astronomical Twilight 5:52 AM EDT 8:35 PM EDT
Moon 6:54 AM EDT (9/28) 7:35 PM EDT (9/28)
Length of Visible Light 12h 46m
Length of Day
11h 56m
Waning Crescent, 0% of the Moon is Illuminated
Sep 28
Waning Crescent
Sep 28
New
Oct 5
First Quarter
Oct 13
Full
Oct 21
Last Quarter

Hourly Weather History & Observations

Time (EDT) Temp. Heat Index Dew Point Humidity Pressure Visibility Wind Dir Wind Speed Gust Speed Precip Events Conditions
12:53 AM 75.9 °F - 70.0 °F 82% 30.07 in 10.0 mi Calm Calm - N/A   Clear
1:53 AM 75.0 °F - 70.0 °F 84% 30.08 in 10.0 mi Calm Calm - N/A   Clear
2:53 AM 73.9 °F - 70.0 °F 87% 30.07 in 10.0 mi Calm Calm - N/A   Clear
3:53 AM 73.0 °F - 70.0 °F 90% 30.06 in 10.0 mi Calm Calm - N/A   Clear
4:53 AM 72.0 °F - 69.1 °F 91% 30.08 in 10.0 mi Calm Calm - N/A   Clear
5:53 AM 72.0 °F - 69.1 °F 91% 30.11 in 9.0 mi Calm Calm - N/A   Partly Cloudy
6:13 AM 72.0 °F - 69.1 °F 91% 30.12 in 9.0 mi Calm Calm - N/A   Mostly Cloudy
6:41 AM 72.0 °F - 69.1 °F 91% 30.13 in 9.0 mi Calm Calm - N/A   Scattered Clouds
6:53 AM 72.0 °F - 69.1 °F 91% 30.12 in 9.0 mi Calm Calm - N/A   Clear
7:53 AM 72.0 °F - 69.1 °F 91% 30.14 in 8.0 mi Calm Calm - N/A   Clear
8:53 AM 77.0 °F - 71.1 °F 82% 30.17 in 10.0 mi Calm Calm - N/A   Clear
9:53 AM 80.1 °F 83.2 °F 70.0 °F 71% 30.17 in 10.0 mi South 8.1 mph - N/A   Clear
10:53 AM 82.0 °F 85.9 °F 70.0 °F 67% 30.18 in 10.0 mi Variable 5.8 mph - N/A   Partly Cloudy
11:53 AM 86.0 °F 89.4 °F 68.0 °F 55% 30.17 in 10.0 mi South 9.2 mph - N/A   Scattered Clouds
12:53 PM 88.0 °F 90.3 °F 66.0 °F 48% 30.17 in 10.0 mi North - - N/A   Clear
1:53 PM 90.0 °F 91.7 °F 64.9 °F 43% 30.14 in 10.0 mi South 6.9 mph - N/A   Clear
2:53 PM 93.0 °F 94.2 °F 63.0 °F 37% 30.11 in 10.0 mi Variable 4.6 mph - N/A   Clear
3:53 PM 91.9 °F 93.3 °F 64.0 °F 39% 30.10 in 10.0 mi Calm Calm - N/A   Clear
4:53 PM 93.0 °F 94.6 °F 64.0 °F 38% 30.10 in 10.0 mi South 5.8 mph - N/A   Clear
5:53 PM 91.0 °F 92.6 °F 64.0 °F 41% 30.11 in 10.0 mi SSE 5.8 mph - N/A   Clear
6:53 PM 89.1 °F 90.3 °F 64.0 °F 43% 30.11 in 10.0 mi Variable 3.5 mph - N/A   Clear
8:53 PM 82.9 °F 85.0 °F 66.0 °F 56% 30.12 in 10.0 mi ESE 3.5 mph - N/A   Clear
9:53 PM 81.0 °F 83.8 °F 68.0 °F 65% 30.14 in 10.0 mi SSE 4.6 mph - N/A   Clear
10:53 PM 79.0 °F - 68.0 °F 69% 30.15 in 10.0 mi South 3.5 mph - N/A   Clear
11:53 PM 78.1 °F - 66.9 °F 68% 30.16 in 10.0 mi South 4.6 mph - N/A   Clear